QPF
0.00 0.00 0.00 0.00 0.00 0.00 0.00 0.00 0.00 0.00 0.01 0.00 0.00 0.00 0.00 0.00 0.00 0.00 0.00 0.00 0.00 0.00 0.00 0.00 0.00 0.00 0.00 0.00 0.00 0.00 0.00 0.00
0.00 0.00 0.00 0.00 0.00 0.00 0.00 0.00 0.01 0.00 0.00 0.00 0.00 0.00 0.00 0.00 0.00 0.00 0.00 0.00 0.00 0.00 0.00 0.00 0.00 0.00 0.00 0.00 0.00 0.00 0.00 0.00
0.00 0.00 0.00 0.00 0.00 0.00 0.00 0.00 0.00 0.01 0.01 0.01 0.00 0.00 0.00 0.00 0.00 0.00 0.00 0.00 0.00 0.00 0.00 0.00 0.00 0.00 0.00 0.00 0.00 0.00 0.00 0.00
0.00 0.00 0.00 0.00 0.00 0.00 0.00 0.00 0.00 0.00 0.00 0.01 0.00 0.00 0.00 0.00 0.00 0.00 0.00 0.00 0.00 0.00 0.00 0.00 0.00 0.00 0.00 0.00 0.00 0.00 0.00 0.00
0.00 0.00 0.00 0.00 0.00 0.00 0.00 0.00 0.00 0.00 0.00 0.00 0.00 0.00 0.00 0.00 0.00 0.00 0.00 0.00 0.00 0.00 0.00 0.00 0.00 0.00 0.00 0.00 0.00 0.00 0.00 0.00
0.00 0.00 0.00 0.00 0.00 0.00 0.00 0.00 0.00 0.00 0.00 0.00 0.00 0.00 0.00 0.00 0.00 0.00 0.00 0.00 0.00 0.00 0.00 0.00 0.00 0.00 0.00 0.00 0.00 0.00 0.00 0.00
0.00 0.00 0.00 0.00 0.00 0.00 0.00 0.00 0.00 0.00 0.00 0.00 0.00 0.00 0.00 0.00 0.00 0.00 0.00 0.00 0.00 0.00 0.00 0.00 0.00 0.00 0.00 0.00 0.00 0.00 0.00 0.00
0.00 0.00 0.00 0.00 0.00 0.00 0.00 0.00 0.00 0.00 0.01 0.00 0.00 0.00 0.00 0.00 0.00 0.00 0.00 0.00 0.00 0.00 0.00 0.00 0.00 0.00 0.00 0.00 0.00 0.00 0.00 0.00
0.00 0.00 0.00 0.00 0.00 0.00 0.00 0.00 0.00 0.00 0.00 0.00 0.00 0.00 0.00 0.00 0.00 0.00 0.00 0.00 0.00 0.00 0.00 0.00 0.00 0.00 0.00 0.00 0.00 0.00 0.00 0.00
0.00 0.00 0.00 0.00 0.00 0.00 0.00 0.00 0.00 0.00 0.00 0.00 0.00 0.00 0.00 0.00 0.00 0.00 0.00 0.00 0.00 0.00 0.00 0.00 0.00 0.00 0.00 0.00 0.00 0.00 0.00 0.00
0.00 0.00 0.00 0.00 0.00 0.00 0.00 0.00 0.00 0.00 0.00 0.00 0.00 0.00 0.00 0.00 0.00 0.00 0.00 0.00 0.00 0.00 0.00 0.00 0.00 0.00 0.00 0.00 0.00 0.00 0.00 0.00
0.00 0.00 0.00 0.00 0.00 0.00 0.00 0.00 0.00 0.00 0.00 0.00 0.00 0.00 0.00 0.00 0.00 0.00 0.00 0.00 0.00 0.00 0.00 0.00 0.00 0.00 0.00 0.00 0.00 0.00 0.00 0.00
0.00 0.00 0.00 0.00 0.00 0.00 0.00 0.00 0.00 0.00 0.00 0.00 0.00 0.00 0.00 0.00 0.00 0.00 0.00 0.00 0.00 0.00 0.00 0.00 0.00 0.00 0.00 0.00 0.00 0.00 0.00 0.00
0.00 0.00 0.00 0.00 0.00 0.00 0.00 0.00 0.00 0.00 0.00 0.00 0.00 0.00 0.00 0.00 0.00 0.00 0.00 0.00 0.00 0.00 0.00 0.00 0.00 0.00 0.00 0.00 0.00 0.00 0.00 0.00
0.00 0.00 0.00 0.00 0.00 0.00 0.00 0.00 0.00 0.00 0.00 0.00 0.00 0.00 0.00 0.00 0.00 0.00 0.00 0.00 0.00 0.00 0.00 0.00 0.00 0.00 0.00 0.00 0.00 0.00 0.00 0.00
0.00 0.00 0.00 0.00 0.00 0.00 0.00 0.00 0.00 0.00 0.00 0.00 0.00 0.00 0.00 0.00 0.00 0.00 0.00 0.00 0.00 0.00 0.00 0.00 0.00 0.00 0.00 0.00 0.00 0.00 0.00 0.00
0.00 0.00 0.00 0.00 0.00 0.00 0.00 0.00 0.00 0.00 0.00 0.00 0.00 0.00 0.00 0.00 0.00 0.00 0.00 0.00 0.00 0.00 0.00 0.00 0.00 0.00 0.00 0.00 0.00 0.00 0.00 0.00
0.00 0.00 0.00 0.00 0.00 0.00 0.00 0.00 0.00 0.00 0.00 0.00 0.00 0.00 0.00 0.00 0.00 0.00 0.00 0.00 0.00 0.00 0.00 0.00 0.00 0.00 0.00 0.00 0.00 0.00 0.00 0.00
0.00 0.00 0.00 0.00 0.00 0.00 0.00 0.00 0.00 0.00 0.00 0.00 0.00 0.00 0.00 0.00 0.00 0.00 0.00 0.00 0.00 0.00 0.00 0.00 0.00 0.00 0.00 0.00 0.00 0.00 0.00 0.00
MSLP
1007.35 1008.38 1008.96 1009.39 1010.08 1010.83 1011.77 1012.67 1013.41 1014.06 1014.86 1015.55 1015.97 1016.50 1017.16 1017.48 1017.69 1017.98 1018.19 1018.25 1018.27 1018.14 1018.35 1018.51 1018.42 1018.27 1018.34 1018.50 1018.68 1018.49 1018.45 1018.34
1006.99 1008.44 1009.14 1009.61 1010.21 1010.66 1011.49 1012.21 1013.10 1013.80 1014.99 1015.47 1016.18 1016.56 1016.91 1017.18 1017.55 1017.91 1018.07 1018.26 1018.48 1018.42 1018.30 1018.55 1018.60 1018.59 1018.94 1019.03 1018.88 1018.59 1018.46 1018.57
1006.60 1008.09 1008.93 1009.46 1010.02 1010.78 1011.55 1011.94 1012.78 1013.59 1014.60 1015.26 1015.60 1016.28 1016.74 1017.05 1017.58 1018.07 1018.34 1018.45 1018.59 1018.66 1018.79 1018.80 1018.87 1018.79 1019.12 1019.29 1019.29 1019.04 1018.66 1018.84
1005.92 1007.33 1008.19 1008.95 1009.85 1010.59 1011.10 1011.49 1012.30 1013.09 1013.85 1014.87 1015.89 1016.71 1017.34 1017.35 1017.81 1018.09 1018.43 1018.65 1018.82 1018.92 1019.05 1019.10 1019.20 1019.15 1019.23 1019.52 1019.55 1019.39 1019.10 1019.04
1004.93 1006.24 1007.35 1008.29 1009.24 1010.32 1010.93 1011.44 1012.07 1013.18 1013.72 1014.47 1015.06 1015.46 1015.94 1016.55 1017.19 1017.83 1018.41 1018.78 1019.01 1019.21 1019.24 1019.30 1019.44 1019.32 1019.56 1019.57 1019.57 1019.71 1019.58 1019.04
1003.85 1004.92 1006.37 1007.62 1008.91 1010.21 1010.98 1011.53 1012.55 1013.43 1013.85 1014.10 1014.62 1015.20 1015.90 1016.57 1017.08 1017.77 1018.15 1018.63 1018.86 1019.00 1019.17 1019.22 1019.25 1019.24 1019.45 1019.60 1019.67 1019.81 1019.63 1019.45
1003.31 1004.42 1005.97 1007.28 1008.93 1010.12 1011.18 1011.89 1012.75 1013.31 1013.72 1014.33 1014.51 1015.01 1015.60 1016.18 1016.94 1017.55 1018.03 1018.37 1018.71 1019.01 1019.09 1019.12 1019.37 1019.52 1019.65 1019.84 1019.94 1019.89 1019.79 1019.73
1002.71 1003.81 1005.33 1006.97 1008.38 1009.64 1010.90 1011.67 1012.45 1013.17 1013.85 1014.19 1014.68 1015.25 1015.70 1016.24 1016.84 1017.22 1017.80 1018.25 1018.49 1018.97 1019.12 1019.31 1019.28 1019.63 1020.01 1020.18 1020.01 1020.03 1019.81 1019.60
1002.21 1003.30 1005.28 1006.81 1008.14 1009.28 1010.51 1011.55 1012.46 1013.20 1013.82 1014.11 1014.65 1015.16 1015.66 1016.28 1016.78 1017.26 1017.62 1017.97 1018.49 1019.04 1019.29 1019.45 1019.68 1019.99 1020.08 1020.03 1019.86 1019.61 1019.54 1019.37
1002.19 1003.33 1005.13 1006.84 1008.13 1009.24 1010.46 1011.49 1012.35 1012.99 1013.55 1014.20 1014.69 1015.23 1015.77 1016.39 1017.18 1017.69 1018.06 1018.60 1018.95 1019.32 1019.44 1019.63 1019.97 1020.07 1019.99 1019.74 1019.59 1019.61 1019.58 1019.44
1002.28 1003.46 1005.07 1006.76 1007.97 1009.22 1010.52 1011.41 1012.03 1012.88 1013.53 1014.13 1014.85 1015.51 1016.21 1016.90 1017.44 1017.86 1018.30 1018.77 1019.04 1019.28 1019.50 1019.90 1020.04 1019.88 1019.70 1019.65 1019.64 1019.57 1019.53 1019.28
1002.38 1003.49 1005.22 1006.69 1007.72 1008.66 1009.98 1011.06 1011.90 1012.64 1013.39 1014.16 1014.83 1015.63 1016.39 1016.99 1017.49 1017.97 1018.38 1018.93 1019.30 1019.56 1019.91 1020.05 1019.95 1019.82 1019.78 1019.81 1019.80 1019.60 1019.36 1019.16
1002.39 1003.73 1005.52 1006.52 1007.35 1008.34 1009.55 1010.66 1011.48 1012.48 1013.39 1014.29 1015.06 1015.84 1016.42 1017.03 1017.67 1018.26 1018.86 1019.18 1019.55 1019.79 1019.94 1019.87 1019.83 1019.83 1019.90 1019.89 1019.67 1019.47 1019.41 1019.15
1002.33 1003.62 1004.96 1006.12 1007.04 1008.00 1009.17 1010.29 1011.23 1012.23 1013.28 1014.10 1015.05 1015.80 1016.47 1017.19 1017.96 1018.59 1019.01 1019.27 1019.49 1019.74 1019.84 1019.83 1019.84 1019.98 1019.90 1019.92 1019.76 1019.51 1019.41 1019.18
1001.97 1003.35 1004.60 1005.78 1006.72 1007.46 1008.66 1009.92 1011.05 1012.11 1013.08 1013.94 1014.93 1015.87 1016.66 1017.40 1018.18 1018.73 1019.08 1019.32 1019.57 1019.65 1019.67 1019.77 1019.89 1019.90 1020.00 1020.02 1019.81 1019.76 1019.56 1019.22
1001.50 1002.66 1003.83 1005.17 1006.32 1007.26 1008.44 1009.63 1010.84 1011.84 1012.95 1013.96 1015.02 1016.03 1016.92 1017.78 1018.40 1018.84 1019.26 1019.50 1019.54 1019.56 1019.61 1019.68 1019.79 1019.98 1020.11 1020.29 1020.12 1020.09 1019.79 1019.41
1000.99 1002.11 1003.22 1004.27 1005.80 1006.78 1008.13 1009.47 1010.70 1011.88 1013.03 1014.10 1015.23 1016.27 1017.14 1017.85 1018.49 1018.97 1019.23 1019.34 1019.38 1019.51 1019.48 1019.67 1019.74 1019.80 1020.31 1020.49 1020.83 1020.54 1020.11 1019.65
999.98 1000.84 1001.98 1003.42 1005.05 1006.15 1007.57 1009.20 1010.74 1011.98 1013.14 1014.46 1015.46 1016.30 1017.07 1017.86 1018.36 1018.74 1018.84 1019.05 1019.27 1019.42 1019.58 1019.65 1019.61 1019.68 1020.30 1020.80 1020.90 1020.21 1019.82 1019.54
998.96 1000.31 1001.81 1003.39 1005.20 1006.65 1008.11 1009.53 1010.84 1012.12 1013.40 1014.48 1015.48 1016.24 1016.95 1017.71 1018.27 1018.37 1018.70 1019.08 1019.28 1019.37 1019.89 1020.08 1020.28 1020.39 1020.70 1020.84 1020.58 1019.91 1019.51 1019.30
Thickness
5753 5747 5745 5743 5739 5736 5729 5724 5718 5714 5707 5700 5696 5692 5687 5684 5681 5679 5677 5676 5675 5674 5671 5669 5668 5668 5666 5662 5657 5656 5654 5651
5750 5739 5737 5735 5732 5730 5723 5720 5714 5710 5698 5694 5687 5683 5682 5680 5675 5672 5670 5668 5666 5665 5665 5662 5660 5658 5652 5649 5647 5646 5642 5639
5742 5733 5730 5728 5726 5722 5716 5716 5710 5705 5696 5690 5688 5681 5678 5674 5669 5665 5662 5660 5659 5657 5654 5652 5649 5647 5642 5637 5634 5633 5632 5625
5737 5729 5727 5725 5720 5717 5714 5713 5707 5701 5695 5686 5678 5671 5664 5663 5660 5658 5653 5651 5648 5645 5642 5640 5637 5635 5631 5626 5621 5617 5613 5609
5737 5731 5725 5721 5718 5713 5709 5708 5704 5695 5690 5682 5675 5672 5666 5663 5658 5652 5645 5640 5637 5635 5632 5630 5626 5624 5617 5613 5608 5601 5597 5594
5738 5733 5727 5721 5715 5705 5702 5700 5692 5685 5681 5679 5672 5666 5661 5656 5651 5644 5641 5634 5631 5628 5625 5621 5617 5613 5606 5600 5594 5588 5583 5578
5737 5732 5723 5716 5707 5699 5690 5687 5681 5677 5674 5668 5666 5660 5654 5649 5642 5636 5632 5628 5624 5619 5615 5610 5604 5598 5593 5587 5580 5573 5568 5563
5731 5727 5718 5709 5701 5694 5684 5679 5674 5669 5664 5660 5655 5650 5645 5638 5633 5630 5625 5620 5616 5609 5603 5598 5593 5586 5577 5569 5563 5557 5554 5547
5725 5724 5710 5701 5693 5688 5680 5672 5666 5660 5655 5652 5647 5641 5635 5630 5625 5621 5617 5612 5606 5596 5590 5583 5576 5569 5563 5556 5551 5546 5539 5532
5716 5712 5703 5693 5685 5678 5670 5663 5656 5652 5648 5642 5636 5630 5625 5620 5612 5608 5603 5596 5590 5583 5577 5570 5563 5556 5550 5544 5539 5531 5522 5513
5706 5701 5694 5685 5678 5669 5659 5654 5650 5643 5638 5632 5625 5619 5613 5607 5601 5596 5591 5584 5578 5573 5565 5556 5549 5544 5538 5531 5523 5515 5506 5498
5695 5692 5684 5675 5669 5665 5655 5647 5641 5636 5629 5622 5616 5610 5602 5597 5591 5586 5581 5573 5565 5557 5548 5542 5538 5532 5524 5515 5507 5500 5491 5481
5688 5681 5670 5666 5662 5656 5647 5640 5634 5625 5618 5610 5604 5598 5593 5586 5579 5574 5566 5560 5551 5542 5537 5532 5525 5517 5509 5501 5494 5485 5473 5465
5680 5672 5663 5657 5654 5649 5641 5633 5625 5617 5609 5602 5594 5587 5582 5575 5567 5560 5553 5546 5538 5530 5524 5519 5512 5504 5496 5487 5478 5469 5459 5449
5676 5665 5656 5651 5646 5641 5633 5624 5617 5608 5600 5593 5584 5577 5570 5563 5554 5547 5540 5533 5524 5519 5513 5506 5498 5491 5481 5471 5463 5452 5442 5435
5668 5661 5653 5645 5638 5633 5625 5618 5608 5600 5591 5583 5574 5565 5556 5548 5541 5534 5525 5518 5513 5507 5500 5493 5485 5476 5466 5455 5446 5435 5427 5420
5660 5654 5648 5644 5634 5627 5617 5608 5599 5589 5580 5571 5561 5552 5544 5536 5527 5519 5511 5506 5500 5493 5488 5479 5471 5463 5449 5438 5424 5418 5412 5405
5657 5654 5649 5640 5628 5621 5611 5599 5586 5578 5569 5557 5548 5541 5532 5523 5515 5507 5502 5494 5487 5481 5473 5464 5457 5449 5433 5420 5411 5409 5401 5391
5658 5650 5640 5629 5614 5605 5596 5585 5575 5566 5555 5546 5536 5528 5520 5510 5502 5496 5488 5480 5473 5466 5455 5446 5436 5426 5415 5406 5400 5398 5390 5380